Omak, WA

1:18 PM PDT on April 21, 2018 (GMT -0700)
Omak

Weather History for KOMK - August, 2014

Change the Weather History Date:

Wednesday, August 13, 2014

  Actual Average Record
Temperature  
Mean Temperature 76 °F 74 °F  
Max Temperature 85 °F 89 °F 103 °F (2004)
Min Temperature 66 °F 58 °F 42 °F (1949)
Degree Days  
Heating Degree Days 0 0  
Month to date heating degree days 0 0  
Since 1 June heating degree days 40 84  
Since 1 July heating degree days 2 15  
Cooling Degree Days 11 9  
Month to date cooling degree days 208 125  
Year to date cooling degree days 704 486  
Since 1 June cooling degree days 690 463  
Growing Degree Days 26 (Base 50)    
Moisture  
Dew Point 58 °F    
Average Humidity 61    
Maximum Humidity 87    
Minimum Humidity 34    
Precipitation  
Precipitation 0.00 in 0.02 in 0.27 in (1938)
Month to date precipitation 0.04 0.23  
Year to date precipitation 5.43 9.02  
Sea Level Pressure  
Sea Level Pressure 29.87 in    
Wind  
Wind Speed 7 mph (SW)    
Max Wind Speed 14 mph    
Max Gust Speed 18 mph    
Visibility 10 miles    
Events Rain    
T = Trace of Precipitation, MM = Missing Value Source: NWS Daily Summary

Daily Weather History Graph

Daily Weather History Graph

Search for Another Location

Airport or City:

Astronomy

Aug. 13, 2014 Rise Set
Actual Time 5:49 AM PDT 8:15 PM PDT
Civil Twilight 5:14 AM PDT 8:50 PM PDT
Nautical Twilight 4:30 AM PDT 9:34 PM PDT
Astronomical Twilight 3:39 AM PDT 10:24 PM PDT
Moon 9:40 PM PDT (8/13) 9:44 AM PDT (8/13)
Length of Visible Light 15h 36m
Length of Day
14h 26m
Waning Gibbous, 87% of the Moon is Illuminated
Aug 13
Waning Gibbous
Aug 17
Last Quarter
Aug 25
New
Sep 2
First Quarter
Sep 8
Full

Hourly Weather History & Observations

Time (PDT) Temp. Heat Index Dew Point Humidity Pressure Visibility Wind Dir Wind Speed Gust Speed Precip Events Conditions
12:53 AM 68.0 °F - 64.9 °F 90% 29.85 in 10.0 mi West 3.5 mph - 0.01 in Rain Light Rain
1:53 AM 69.1 °F - 66.0 °F 90% 29.85 in 10.0 mi Calm Calm - 0.00 in   Overcast
2:53 AM 69.1 °F - 63.0 °F 81% 29.85 in 10.0 mi South 10.4 mph - N/A   Overcast
3:53 AM 69.1 °F - 62.1 °F 78% 29.86 in 10.0 mi South 10.4 mph - N/A   Overcast
6:53 AM 68.0 °F - 61.0 °F 78% 29.90 in 10.0 mi South 6.9 mph - N/A   Scattered Clouds
8:53 AM 71.1 °F - 61.0 °F 70% 29.92 in 10.0 mi SW 8.1 mph - N/A   Overcast
9:53 AM 73.9 °F - 60.1 °F 62% 29.92 in 10.0 mi SW 9.2 mph - N/A   Partly Cloudy
10:53 AM 75.9 °F - 59.0 °F 56% 29.92 in 10.0 mi North - - N/A   Partly Cloudy
11:53 AM 78.1 °F - 59.0 °F 52% 29.92 in 10.0 mi Variable 3.5 mph - N/A   Clear
1:53 PM 82.0 °F 82.0 °F 57.9 °F 44% 29.91 in 10.0 mi SW 12.7 mph - N/A   Scattered Clouds
2:53 PM 82.9 °F 82.0 °F 55.0 °F 38% 29.89 in 10.0 mi SW 5.8 mph - N/A   Clear
3:53 PM 84.0 °F 83.0 °F 55.9 °F 38% 29.86 in 10.0 mi Variable 6.9 mph - N/A   Clear
4:53 PM 84.0 °F 82.9 °F 55.0 °F 37% 29.84 in 10.0 mi South 6.9 mph - N/A   Clear
5:53 PM 84.9 °F 83.3 °F 54.0 °F 34% 29.83 in 10.0 mi SW 8.1 mph - N/A   Clear
6:53 PM 84.0 °F 82.5 °F 53.1 °F 34% 29.84 in 10.0 mi SSW 5.8 mph - N/A   Clear
7:53 PM 78.1 °F - 53.1 °F 42% 29.84 in 10.0 mi SW 4.6 mph - N/A   Clear
9:53 PM 72.0 °F - 53.1 °F 51% 29.87 in 10.0 mi West 5.8 mph - N/A   Clear
10:53 PM 71.1 °F - 55.0 °F 57% 29.87 in 10.0 mi WNW 9.2 mph - N/A   Clear
11:53 PM 69.1 °F - 55.0 °F 61% 29.88 in 10.0 mi NW 5.8 mph - N/A   Mostly Cloudy